CW7520 Weather Reports


Display with metric or nautical units.
time (UTC)temp
F
wind
direction
speed
MPH
gust
MPH
rain 1hr
in
rain 24hr
in
rain mn
in
humidity
%
barometer
mb
20260506154505 46 0 0.0 0.0 0.00 0.30 0.00 76 1018.6
20260506153604 46 0 0.0 0.0 0.00 0.30 0.00 77 1018.6
20260506152704 46 0 0.0 0.0 0.00 0.30 0.00 77 1018.7
20260506152016 46 0 0.0 0.0 0.00 0.30 0.00 77 1018.6
20260506150905 46 0 0.0 0.0 0.00 0.30 0.00 78 1018.7
20260506150008 46 0 0.0 0.0 0.00 0.30 0.00 78 1018.7
20260506145405 46 0 0.0 0.0 0.00 0.30 0.00 77 1018.7
20260506144508 47 0 0.0 0.0 0.00 0.30 0.00 77 1018.5
20260506143604 47 0 0.0 0.0 0.00 0.30 0.00 76 1018.6
20260506142703 47 0 0.0 0.0 0.00 0.30 0.00 76 1018.5
20260506141808 47 0 0.0 0.0 0.00 0.30 0.00 76 1018.5
20260506141113 47 0 0.0 0.0 0.00 0.30 0.00 76 1018.5
20260506140013 48 0 0.0 0.0 0.00 0.30 0.00 76 1018.4
20260506135404 48 0 0.0 0.0 0.00 0.30 0.30 76 1018.3
20260506134508 48 0 0.0 0.0 0.00 0.30 0.30 77 1018.1
20260506133605 49 0 0.0 0.0 0.00 0.30 0.30 78 1018.4
20260506132709 49 0 0.0 0.0 0.00 0.30 0.30 79 1018.3
20260506131804 49 0 0.0 0.0 0.00 0.30 0.30 80 1018.4
20260506130903 49 0 0.0 0.0 0.00 0.30 0.30 82 1018.4
20260506130008 50 0 0.0 0.0 0.00 0.30 0.30 82 1018.2
20260506125408 50 0 0.0 0.0 0.00 0.30 0.30 83 1018.2
20260506124508 50 0 0.0 0.0 0.00 0.30 0.30 83 1018.0
20260506123814 50 0 0.0 0.0 0.00 0.30 0.30 84 1018.0
20260506122703 50 0 0.0 0.0 0.00 0.30 0.30 85 1017.9
20260506121803 50 0 0.0 0.0 0.00 0.30 0.30 85 1017.9
20260506120903 50 0 0.0 0.0 0.00 0.30 0.30 85 1017.8
20260506120004 50 0 0.0 0.0 0.00 0.30 0.30 85 1017.7
20260506115403 50 0 0.0 0.0 0.00 0.30 0.30 85 1017.7
20260506114508 50 0 0.0 0.0 0.00 0.30 0.30 86 1017.7
20260506113608 50 0 0.0 0.0 0.01 0.30 0.30 86 1017.6
20260506112703 50 0 0.0 0.0 0.01 0.30 0.30 86 1017.6
20260506112019 50 0 0.0 0.0 0.01 0.30 0.30 85 1017.7
20260506110903 50 0 0.0 0.0 0.01 0.30 0.30 86 1017.6
20260506110009 51 0 0.0 0.0 0.02 0.30 0.30 86 1017.3
20260506105403 51 0 0.0 0.0 0.02 0.30 0.30 86 1017.3
20260506104714 52 0 0.0 0.0 0.02 0.30 0.30 87 1017.2
20260506103604 53 0 0.0 0.0 0.03 0.29 0.29 87 1016.7
20260506102708 53 0 0.0 0.0 0.15 0.29 0.29 88 1016.7
20260506101808 53 0 0.0 0.0 0.15 0.29 0.29 87 1016.6
20260506100904 54 0 0.0 0.0 0.15 0.29 0.29 87 1016.5
20260506100008 54 0 0.0 0.0 0.15 0.28 0.28 87 1016.2
20260506095404 54 0 0.0 0.0 0.16 0.28 0.28 86 1016.3
20260506094714 55 0 0.0 0.0 0.16 0.28 0.28 86 1016.1
20260506093608 56 0 0.0 0.0 0.17 0.26 0.26 86 1016.1
20260506092704 56 0 0.0 0.0 0.13 0.14 0.14 86 1015.0
20260506091813 56 0 0.0 0.0 0.13 0.14 0.14 85 1015.1
20260506090918 57 0 0.0 0.0 0.14 0.14 0.14 85 1015.3
20260506090219 57 0 0.0 0.0 0.14 0.14 0.14 84 1015.3
20260506085409 58 0 0.0 0.0 0.13 0.13 0.13 83 1015.4
20260506084503 58 0 0.0 0.0 0.12 0.12 0.12 82 1015.3
20260506083823 58 0 0.0 0.0 0.10 0.10 0.11 81 1015.4
20260506082914 59 0 0.0 0.0 0.02 0.02 0.02 79 1015.5
20260506081803 59 0 0.0 0.0 0.02 0.02 0.02 76 1014.8
20260506080903 60 0 0.0 0.0 0.00 0.00 0.00 74 1014.7
20260506072708 61 0 0.0 0.0 0.00 0.00 0.00 65 1014.4
20260506071803 62 0 0.0 0.0 0.00 0.00 0.00 65 1014.4
20260506070908 62 0 0.0 0.0 0.00 0.00 0.00 63 1014.5
20260506070224 62 0 0.0 0.0 0.00 0.00 0.00 63 1014.6
20260506061808 64 0 0.0 0.0 0.00 0.00 0.00 59 1015.0
20260506060903 65 0 0.0 0.0 0.00 0.00 0.00 57 1015.0
20260506050913 65 0 0.0 0.0 0.00 0.00 0.00 53 1015.9
20260506044504 66 0 0.0 0.0 0.00 0.00 0.00 52 1016.2
20260506043608 66 0 0.0 0.0 0.00 0.00 0.00 53 1016.4
20260506042704 65 0 0.0 0.0 0.00 0.00 0.00 54 1016.5
20260506041813 64 0 0.0 0.0 0.00 0.00 0.00 54 1016.7
20260506040903 65 0 0.0 0.0 0.00 0.00 0.00 54 1016.7
20260506040004 65 0 0.0 0.0 0.00 0.00 0.00 54 1016.8
20260506035409 65 0 0.0 0.0 0.00 0.00 0.00 54 1016.9
20260506034503 65 0 0.0 0.0 0.00 0.00 0.00 55 1017.0
20260506033605 65 0 0.0 0.0 0.00 0.00 0.00 55 1016.9
20260506032708 65 0 0.0 0.0 0.00 0.00 0.00 54 1017.1
20260506031803 66 0 0.0 0.0 0.00 0.00 0.00 55 1017.4
20260506030903 66 0 0.0 0.0 0.00 0.00 0.00 55 1017.5
20260506030004 65 0 0.0 0.0 0.00 0.00 0.00 57 1017.7
20260506025614 64 0 0.0 0.0 0.00 0.00 0.00 58 1017.7
20260506024503 64 0 0.0 0.0 0.00 0.00 0.00 58 1017.9
20260506023814 63 0 0.0 0.0 0.00 0.00 0.00 59 1018.0
20260506022703 63 0 0.0 0.0 0.00 0.00 0.00 59 1018.3
20260506021805 63 0 0.0 0.0 0.00 0.00 0.00 59 1018.4
20260506020908 63 0 0.0 0.0 0.00 0.00 0.00 60 1018.7
20260506020218 62 0 0.0 0.0 0.00 0.00 0.00 60 1018.8
20260506015408 62 0 0.0 0.0 0.00 0.00 0.00 60 1018.9
20260506014513 62 0 0.0 0.0 0.00 0.00 0.00 60 1019.1
20260506013603 62 0 0.0 0.0 0.00 0.00 0.00 59 1019.2
20260506012705 62 0 0.0 0.0 0.00 0.00 0.00 60 1019.3
20260506011803 62 0 0.0 0.0 0.00 0.00 0.00 60 1019.5
20260506010903 62 0 0.0 0.0 0.00 0.00 0.00 60 1019.6
20260506010004 62 0 0.0 0.0 0.00 0.00 0.00 60 1019.7
20260506005619 62 0 0.0 0.0 0.00 0.00 0.00 61 1019.7
20260506004509 62 0 0.0 0.0 0.00 0.00 0.00 61 1019.8
20260506003604 61 0 0.0 0.0 0.00 0.00 0.00 61 1019.8
20260506002713 61 0 0.0 0.0 0.00 0.00 0.00 61 1020.0
20260506001808 61 0 0.0 0.0 0.00 0.00 0.00 63 1020.1
20260506000903 60 0 0.0 0.0 0.00 0.00 0.00 63 1020.2
20260506000013 60 0 0.0 0.0 0.00 0.00 0.00 64 1020.2
20260505235413 60 0 0.0 0.0 0.00 0.00 0.00 65 1020.3
20260505234714 59 0 0.0 0.0 0.00 0.00 0.00 65 1020.3
20260505233608 59 0 0.0 0.0 0.00 0.00 0.00 65 1020.3
20260505232708 59 0 0.0 0.0 0.00 0.00 0.00 65 1020.4
20260505231803 59 0 0.0 0.0 0.00 0.00 0.00 66 1020.5
20260505230904 58 0 0.0 0.0 0.00 0.00 0.00 68 1020.5
20260505230008 58 0 0.0 0.0 0.00 0.00 0.00 68 1020.7
20260505225408 58 0 0.0 0.0 0.00 0.00 0.00 68 1020.7
20260505224504 58 0 0.0 0.0 0.00 0.00 0.00 69 1020.7
20260505223603 58 0 0.0 0.0 0.00 0.00 0.00 69 1020.6
20260505222703 58 0 0.0 0.0 0.00 0.00 0.00 69 1020.7
20260505221808 58 0 0.0 0.0 0.00 0.00 0.00 70 1020.6
20260505220908 58 0 0.0 0.0 0.00 0.00 0.00 70 1020.7
20260505220008 58 0 0.0 0.0 0.00 0.00 0.00 69 1020.7
20260505215404 58 0 0.0 0.0 0.00 0.00 0.00 69 1020.7
20260505214719 58 0 0.0 0.0 0.00 0.00 0.00 69 1020.7
20260505213608 58 0 0.0 0.0 0.00 0.00 0.00 69 1020.7
20260505212703 58 0 0.0 0.0 0.00 0.00 0.00 68 1020.6
20260505211803 58 0 0.0 0.0 0.00 0.00 0.00 68 1020.6
20260505210903 58 0 0.0 0.0 0.00 0.00 0.00 67 1020.6
20260505210008 58 0 0.0 0.0 0.00 0.00 0.00 67 1020.6
20260505205405 58 0 0.0 0.0 0.00 0.00 0.00 67 1020.7
20260505204509 58 0 0.0 0.0 0.00 0.00 0.00 67 1020.7
20260505203605 58 0 0.0 0.0 0.00 0.00 0.00 67 1020.7
20260505202915 58 0 0.0 0.0 0.00 0.00 0.00 67 1020.7
20260505201805 58 0 0.0 0.0 0.00 0.00 0.00 67 1020.7
20260505200905 58 0 0.0 0.0 0.00 0.00 0.00 67 1020.7
20260505200004 57 0 0.0 0.0 0.00 0.00 0.00 67 1020.6
20260505195405 57 0 0.0 0.0 0.00 0.00 0.00 67 1020.6
20260505194508 57 0 0.0 0.0 0.00 0.00 0.00 67 1020.6
20260505193604 57 0 0.0 0.0 0.00 0.00 0.00 67 1020.7
20260505192703 58 0 0.0 0.0 0.00 0.00 0.00 68 1020.7
20260505192015 58 0 0.0 0.0 0.00 0.00 0.00 68 1020.7
20260505190905 58 0 0.0 0.0 0.00 0.00 0.00 68 1020.7
20260505190008 58 0 0.0 0.0 0.00 0.00 0.00 68 1020.7
20260505185615 58 0 0.0 0.0 0.00 0.00 0.00 68 1020.6
20260505184505 58 0 0.0 0.0 0.00 0.00 0.00 68 1020.7
20260505183605 58 0 0.0 0.0 0.00 0.00 0.00 68 1020.7
20260505182704 58 0 0.0 0.0 0.00 0.00 0.00 68 1020.7
20260505182014 58 0 0.0 0.0 0.00 0.00 0.00 68 1020.7
20260505180904 58 0 0.0 0.0 0.00 0.00 0.00 68 1020.8
20260505180008 58 0 0.0 0.0 0.00 0.00 0.00 68 1020.8
20260505175614 58 0 0.0 0.0 0.00 0.00 0.00 68 1020.8
20260505174505 58 0 0.0 0.0 0.00 0.00 0.00 68 1020.9
20260505173603 58 0 0.0 0.0 0.00 0.00 0.00 68 1020.9
20260505172703 57 0 0.0 0.0 0.00 0.00 0.00 68 1021.0
20260505172014 58 0 0.0 0.0 0.00 0.00 0.00 68 1021.0
20260505170905 58 0 0.0 0.0 0.00 0.00 0.00 69 1021.1
20260505170010 58 0 0.0 0.0 0.00 0.00 0.00 68 1021.1
20260505165403 58 0 0.0 0.0 0.00 0.00 0.00 68 1021.2
20260505164505 58 0 0.0 0.0 0.00 0.00 0.00 69 1021.1
20260505163604 57 0 0.0 0.0 0.00 0.00 0.00 69 1021.2
20260505162703 57 0 0.0 0.0 0.00 0.00 0.00 69 1021.3
20260505162013 57 0 0.0 0.0 0.00 0.00 0.00 69 1021.4
20260505160903 57 0 0.0 0.0 0.00 0.00 0.00 71 1021.5